Wetbulb
60.11 60.56 61.01 60.88 60.37 59.48 59.11 59.12 59.08 59.21 59.63 60.29 60.91 60.98 62.23 62.30 60.89 54.37 51.07 54.36 60.04 66.91 64.35 58.88 56.96 55.33 52.39 49.71 51.36 48.57 40.56 36.27 38.79 40.16 42.17 46.72 46.56 48.51 48.82 46.05 47.86 48.61 52.30 59.37 64.80
60.04 60.03 60.51 60.75 60.42 59.85 59.42 58.78 58.82 59.10 59.63 60.69 60.65 60.59 62.13 62.47 53.45 50.41 58.86 63.80 66.30 68.98 55.64 53.22 52.00 51.62 47.50 47.30 48.85 44.74 38.01 39.71 44.24 43.52 43.13 47.05 45.92 47.08 46.71 45.25 45.09 47.57 55.28 62.63 63.80
60.04 59.97 60.06 60.37 60.33 60.15 60.08 59.48 58.61 59.12 59.58 60.33 60.41 60.13 62.08 59.87 48.37 50.14 66.04 65.76 66.83 67.34 56.88 55.33 53.75 50.92 45.55 46.41 46.00 43.98 40.65 43.40 44.97 46.84 48.26 47.98 46.90 47.44 44.79 43.99 45.41 45.69 47.90 57.79 61.75
60.38 60.00 59.77 59.89 60.15 59.99 60.18 59.59 58.40 58.81 59.58 59.70 59.64 59.87 62.11 54.08 40.60 50.56 67.79 66.35 68.11 61.03 55.92 53.85 50.75 46.60 44.07 43.09 46.57 42.82 46.70 46.51 48.19 49.84 48.76 46.64 47.60 44.83 45.98 47.73 48.60 49.23 48.06 50.01 59.28
61.03 60.31 59.75 59.65 59.39 59.27 59.66 59.55 58.61 58.39 59.15 59.04 59.26 59.89 53.15 43.10 46.13 55.85 67.04 65.39 60.60 59.14 53.55 52.46 47.65 45.49 42.03 43.54 44.24 42.91 45.04 47.49 48.53 47.60 46.83 46.93 44.98 44.68 45.34 48.58 48.59 49.01 48.82 48.65 48.83
61.34 60.74 59.83 59.52 59.01 58.98 59.46 59.55 58.25 59.10 59.52 59.68 59.16 60.30 49.58 40.95 51.93 61.27 59.43 56.35 56.50 54.37 52.80 52.07 49.54 48.39 44.34 43.60 42.68 44.03 44.77 44.73 45.72 45.85 45.69 44.65 44.65 44.30 46.55 46.99 47.44 47.66 47.40 47.39 47.84
61.55 61.15 59.90 59.45 59.30 59.22 59.39 58.84 58.58 58.91 60.33 59.76 58.54 57.77 48.84 45.45 52.71 53.22 57.93 55.26 56.89 55.62 52.59 54.11 52.23 47.25 45.71 42.98 46.11 45.03 41.43 42.96 43.75 43.94 43.77 44.54 40.48 41.75 45.62 45.72 45.43 45.13 45.39 45.96 46.67
61.67 61.25 59.75 59.13 59.08 58.84 58.90 58.15 58.01 58.95 59.15 58.45 59.75 52.78 42.79 53.14 54.18 51.85 54.73 51.99 55.21 55.75 55.68 55.22 52.80 49.58 46.00 46.16 44.21 40.29 38.13 34.42 41.04 42.85 43.95 42.81 36.00 43.85 44.78 43.96 44.24 44.58 43.60 44.62 45.47
61.64 60.99 59.49 58.90 58.87 58.56 58.12 57.67 57.68 59.42 59.32 60.25 53.26 49.53 45.13 57.23 50.29 49.92 49.38 50.76 51.84 54.32 54.68 57.09 51.52 46.10 45.33 39.76 37.02 36.68 32.46 32.98 37.68 42.53 42.16 40.15 36.54 43.36 46.97 43.88 43.52 43.89 44.45 44.33 44.93
61.61 60.61 59.48 58.96 58.59 58.00 57.03 56.37 54.90 54.94 54.30 58.52 56.66 46.55 48.74 45.01 47.25 48.45 47.18 50.77 49.85 51.84 50.55 47.92 44.16 40.36 38.46 37.43 29.86 32.13 32.37 33.77 33.81 40.16 42.12 39.97 39.72 41.97 44.05 43.69 43.32 42.85 43.39 43.80 44.46
61.29 60.34 59.19 58.80 58.02 57.02 51.96 43.11 40.74 40.95 41.26 39.74 40.32 44.77 44.10 46.42 48.28 47.19 48.36 49.41 49.43 47.58 42.79 43.45 38.79 35.70 39.22 39.34 37.82 35.86 34.07 33.83 36.29 41.48 38.86 38.74 39.81 41.15 42.97 42.30 41.96 43.60 44.01 43.61 43.78
61.09 60.40 59.04 58.12 56.99 54.02 45.50 41.17 39.74 40.26 35.27 43.43 42.68 42.31 44.89 44.81 43.29 46.53 49.18 45.00 43.77 39.61 41.85 40.62 36.68 41.35 42.13 41.08 39.38 37.59 35.29 34.50 38.20 41.47 39.05 37.95 38.94 41.78 42.40 42.02 42.44 42.16 42.30 43.75 45.17
61.01 60.12 58.60 57.35 55.32 46.09 42.26 42.18 44.91 44.28 35.82 39.87 43.75 43.67 44.69 45.81 44.26 45.12 46.45 44.28 40.92 38.00 39.17 35.96 39.74 44.91 42.61 40.28 38.87 37.27 35.58 35.69 36.53 39.05 38.32 36.21 35.01 36.72 40.49 41.35 42.71 43.19 44.12 45.88 46.14
60.69 59.38 57.39 54.79 46.56 39.82 42.05 45.16 44.21 45.14 32.20 37.58 41.50 45.98 48.22 47.86 43.66 46.01 45.28 44.62 41.08 37.71 38.03 37.79 41.80 40.90 38.98 38.56 39.07 33.23 40.10 39.99 38.70 34.87 29.81 35.27 27.55 34.73 36.65 38.30 41.51 42.52 42.92 44.28 46.91
60.02 59.17 54.75 51.22 41.85 41.43 44.49 44.12 44.44 41.79 26.09 40.85 43.02 48.96 43.75 42.75 40.00 43.02 44.42 44.45 38.61 38.47 37.41 36.03 36.23 36.16 36.40 36.44 39.51 35.94 40.32 38.36 37.95 33.78 29.80 31.46 28.45 31.82 35.15 36.44 38.77 40.59 42.46 43.04 44.51
59.65 58.53 53.23 47.73 42.43 43.79 44.26 43.42 42.15 33.48 26.46 37.62 39.44 37.80 36.46 37.91 37.10 39.44 40.02 41.65 40.59 36.94 35.82 35.12 38.27 35.36 34.28 37.26 37.28 37.91 35.85 36.81 35.36 32.24 25.53 30.47 30.89 30.24 32.18 36.12 37.70 39.75 41.31 42.60 44.01
59.32 58.01 52.71 46.26 43.18 42.94 43.67 39.66 33.01 27.34 37.89 33.98 34.39 35.88 33.18 32.29 33.55 35.62 33.61 31.57 31.41 27.46 26.96 31.78 31.66 33.61 34.78 31.99 35.39 35.38 32.25 24.23 23.18 23.91 24.06 32.40 29.32 31.83 36.29 38.36 38.88 37.68 39.41 41.90 44.17
58.58 57.16 53.22 48.11 44.13 44.86 42.23 34.40 27.21 34.50 33.87 37.10 34.58 33.43 30.67 31.79 30.85 31.51 30.62 28.52 30.28 29.91 26.71 24.91 23.96 28.59 32.51 29.46 27.51 29.34 28.88 25.87 19.44 20.49 23.26 30.38 26.26 31.72 37.85 38.51 36.91 37.55 38.96 40.49 42.33
55.65 48.72 46.35 46.59 49.48 45.40 38.78 27.94 30.39 33.19 36.04 34.15 33.88 28.41 28.08 30.34 28.72 28.10 27.30 28.88 29.23 28.70 26.10 23.42 24.51 31.00 32.23 33.13 32.67 27.75 24.64 29.35 23.48 25.10 19.51 23.68 28.24 36.75 35.81 34.40 34.17 34.25 37.29 38.56 40.70
48.10 47.23 44.46 44.44 46.49 43.60 35.80 34.71 33.04 36.66 36.15 34.01 30.13 32.90 27.03 27.41 27.07 26.12 26.63 30.12 29.84 31.26 29.63 25.74 20.94 27.58 32.20 33.91 32.24 27.58 29.42 23.97 25.54 14.02 17.93 20.64 23.02 24.74 27.90 29.54 31.42 31.72 33.58 37.62 40.46
46.95 43.38 41.86 44.25 46.17 38.04 31.80 31.26 35.41 39.61 37.76 33.84 32.65 33.25 30.28 28.76 27.44 26.42 29.58 29.25 31.76 31.20 31.36 28.02 23.50 23.41 29.30 26.40 24.16 25.44 24.19 25.94 25.14 23.07 17.39 16.53 19.28 29.18 27.27 29.37 29.67 31.51 33.66 35.47 38.95
44.35 40.47 41.41 44.12 34.85 35.29 32.08 34.10 40.80 36.19 34.69 34.14 32.98 32.08 31.37 30.68 27.26 26.11 25.97 29.49 33.75 32.11 27.53 28.95 25.72 21.35 23.62 28.59 29.76 29.15 25.79 25.06 18.03 17.04 19.42 16.00 17.14 32.27 28.61 30.30 31.49 31.66 33.88 36.11 38.14
43.70 39.94 43.89 41.43 31.18 27.13 31.65 33.56 37.07 37.43 36.21 34.24 33.19 34.80 31.67 30.43 28.40 27.86 29.44 34.84 34.25 32.85 28.23 29.38 23.34 17.20 18.50 23.07 26.61 23.94 25.59 26.05 24.10 20.92 13.48 12.40 15.93 30.45 30.78 30.53 31.59 31.22 32.54 34.09 36.01
40.73 35.31 36.95 37.69 37.53 32.54 33.40 33.02 33.17 36.54 36.39 35.69 33.74 34.42 31.79 29.24 31.67 28.10 28.78 32.38 34.48 33.51 36.44 32.86 23.37 21.41 16.48 19.53 20.33 18.31 23.17 23.42 19.45 11.17 10.97 16.65 18.76 24.23 26.35 27.09 29.18 30.68 32.12 32.43 34.42
40.75 36.49 36.73 29.59 31.30 33.04 35.22 34.30 33.45 33.02 35.74 35.19 32.64 32.63 31.57 27.29 27.84 27.79 29.91 30.06 31.75 34.04 31.14 29.94 22.33 23.09 23.77 23.74 23.53 22.87 23.30 23.13 15.97 17.28 12.83 18.18 17.92 22.61 26.02 27.39 29.30 31.41 32.16 32.57 33.80
37.30 35.24 35.46 32.59 32.33 31.70 32.66 30.71 30.09 32.67 33.90 29.88 31.00 31.45 32.25 26.25 28.65 27.01 28.42 27.29 26.27 26.93 25.31 25.57 19.89 22.50 17.84 21.64 22.88 21.20 23.22 22.83 22.77 21.94 19.29 20.50 19.80 27.85 29.49 29.90 29.45 30.05 30.91 31.51 32.81
38.64 39.57 38.57 35.58 32.88 30.47 29.14 30.33 31.49 34.49 34.21 33.74 31.84 31.82 29.44 30.29 32.61 31.21 32.33 28.97 27.87 24.82 22.45 22.56 21.08 16.74 11.59 18.56 19.98 15.86 20.66 21.37 21.76 22.57 22.03 17.91 25.21 31.16 31.31 32.59 33.35 34.20 33.92 31.77 33.15
MSLP
1019.26 1018.94 1018.62 1018.27 1017.92 1017.53 1017.16 1016.68 1016.20 1015.77 1015.34 1014.96 1014.65 1014.24 1013.79 1013.37 1012.94 1012.72 1011.89 1010.67 1010.58 1010.26 1010.42 1010.87 1011.03 1011.26 1011.51 1012.06 1012.42 1013.08 1014.19 1014.40 1013.35 1012.58 1011.32 1010.58 1010.24 1009.62 1009.33 1009.28 1009.15 1008.84 1008.76 1008.74 1008.46
1019.25 1018.94 1018.61 1018.26 1017.88 1017.46 1016.98 1016.55 1016.12 1015.64 1015.12 1014.62 1014.32 1013.97 1013.59 1013.27 1013.07 1012.03 1010.49 1010.29 1010.32 1010.34 1010.71 1011.01 1011.37 1011.53 1012.10 1012.41 1012.81 1013.28 1014.29 1013.55 1012.57 1011.85 1011.28 1010.85 1010.67 1010.31 1009.90 1009.48 1009.30 1008.97 1008.68 1008.90 1008.85
1019.24 1018.97 1018.67 1018.30 1017.89 1017.43 1016.95 1016.50 1016.05 1015.50 1014.99 1014.49 1014.13 1013.85 1013.43 1013.30 1012.82 1010.87 1010.03 1010.11 1010.17 1010.41 1010.77 1011.05 1011.40 1011.72 1012.30 1012.62 1013.00 1013.40 1013.36 1012.88 1012.08 1011.70 1011.43 1011.12 1010.80 1010.46 1010.25 1009.52 1009.49 1009.31 1009.05 1009.01 1009.31
1019.31 1019.03 1018.66 1018.23 1017.81 1017.36 1016.84 1016.37 1015.90 1015.34 1014.80 1014.38 1014.00 1013.67 1013.31 1013.29 1012.31 1010.46 1010.10 1010.11 1010.15 1010.50 1010.90 1011.27 1011.71 1012.21 1012.61 1012.83 1012.85 1013.29 1012.96 1012.72 1012.03 1011.50 1011.37 1011.17 1010.69 1010.54 1010.27 1009.34 1009.24 1009.16 1009.13 1009.19 1009.41
1019.28 1018.95 1018.60 1018.20 1017.79 1017.28 1016.65 1016.06 1015.49 1014.90 1014.47 1014.11 1013.86 1013.58 1013.24 1012.73 1011.12 1010.20 1010.14 1010.17 1010.42 1010.73 1011.01 1011.34 1011.82 1012.35 1012.84 1013.01 1013.06 1013.23 1012.91 1012.53 1011.98 1011.82 1011.51 1011.18 1010.88 1010.69 1010.10 1009.30 1009.04 1009.11 1009.15 1009.11 1009.06
1019.22 1018.94 1018.63 1018.21 1017.68 1017.02 1016.31 1015.67 1015.06 1014.39 1013.96 1013.50 1013.54 1013.55 1013.25 1012.16 1010.14 1010.18 1010.33 1010.52 1010.64 1010.91 1011.18 1011.37 1011.49 1011.67 1012.19 1012.59 1012.99 1012.95 1012.75 1012.45 1011.99 1011.56 1011.34 1011.08 1010.72 1010.71 1009.45 1009.44 1009.19 1009.05 1009.01 1008.81 1008.84
1019.18 1018.91 1018.58 1018.16 1017.50 1016.75 1015.93 1015.19 1014.65 1013.99 1013.45 1013.06 1013.44 1013.66 1013.08 1011.15 1010.32 1010.46 1010.48 1010.51 1010.57 1010.68 1010.96 1011.03 1011.25 1011.88 1012.39 1012.64 1012.68 1012.70 1013.01 1012.56 1011.78 1011.37 1011.19 1011.02 1010.93 1010.52 1009.70 1009.59 1009.39 1009.32 1009.24 1009.10 1008.94
1019.12 1018.82 1018.46 1017.96 1017.24 1016.46 1015.53 1014.73 1014.21 1013.75 1013.47 1013.35 1013.54 1013.68 1012.39 1010.68 1010.50 1010.53 1010.57 1010.51 1010.60 1010.78 1010.85 1010.92 1011.22 1011.76 1012.28 1012.67 1012.97 1013.37 1013.46 1013.11 1011.99 1011.52 1011.22 1011.38 1011.13 1010.53 1010.17 1009.98 1009.73 1009.31 1009.00 1008.85 1008.52
1018.99 1018.71 1018.35 1017.89 1017.26 1016.49 1015.28 1014.32 1013.55 1013.30 1013.33 1013.41 1013.57 1013.39 1011.71 1010.32 1010.40 1010.40 1010.40 1010.43 1010.38 1010.52 1010.68 1011.00 1011.36 1012.19 1012.79 1013.65 1014.34 1014.45 1014.13 1013.70 1012.96 1012.06 1011.87 1011.70 1011.56 1011.01 1010.40 1010.28 1010.07 1009.41 1008.74 1008.50 1008.07
1018.91 1018.79 1018.51 1018.08 1017.35 1016.46 1015.09 1013.90 1013.68 1013.54 1013.46 1013.37 1013.35 1013.65 1011.86 1011.20 1010.84 1010.57 1010.42 1010.40 1010.54 1010.78 1011.07 1011.37 1012.10 1012.78 1013.65 1014.23 1014.50 1014.49 1014.59 1014.10 1013.61 1012.67 1012.15 1012.21 1011.45 1011.22 1010.78 1010.58 1010.02 1009.61 1008.95 1008.51 1008.29
1018.77 1018.71 1018.49 1018.11 1017.47 1016.61 1015.63 1014.42 1014.76 1014.36 1014.35 1014.40 1013.94 1013.48 1012.46 1011.83 1011.39 1011.08 1010.91 1010.94 1011.24 1011.78 1012.31 1012.59 1013.34 1013.24 1013.43 1013.53 1014.00 1014.32 1014.46 1014.37 1013.82 1013.11 1012.98 1012.56 1011.61 1011.13 1010.52 1010.33 1010.01 1009.56 1009.08 1008.80 1008.32
1018.69 1018.57 1018.46 1018.20 1017.73 1017.07 1016.63 1017.43 1018.30 1018.37 1016.22 1013.95 1013.61 1013.36 1012.82 1012.72 1012.07 1011.17 1010.83 1011.37 1011.92 1012.58 1013.11 1013.66 1013.34 1013.16 1013.34 1013.74 1014.03 1014.25 1014.53 1014.29 1013.30 1012.48 1012.79 1012.30 1011.37 1010.99 1010.61 1010.01 1009.84 1010.34 1010.24 1009.57 1008.57
1018.58 1018.51 1018.52 1018.17 1017.72 1017.64 1018.21 1018.58 1018.46 1018.33 1017.71 1014.06 1013.08 1012.54 1012.05 1012.30 1012.29 1011.86 1011.61 1011.78 1012.32 1013.33 1014.05 1014.41 1013.75 1013.20 1013.61 1014.03 1014.61 1014.63 1014.38 1013.89 1013.62 1012.85 1012.37 1012.25 1011.13 1010.54 1010.23 1010.07 1010.23 1010.65 1011.22 1010.69 1010.10
1018.69 1018.67 1018.69 1018.31 1018.21 1018.75 1018.59 1018.43 1018.25 1018.20 1017.50 1014.06 1012.74 1011.88 1011.69 1011.83 1012.05 1011.90 1012.03 1012.45 1012.96 1013.36 1013.91 1014.23 1013.72 1013.57 1013.53 1013.49 1013.76 1014.24 1013.72 1013.57 1013.51 1013.57 1013.32 1012.71 1012.36 1011.35 1010.94 1010.73 1011.24 1011.64 1011.81 1011.38 1010.79
1018.79 1018.75 1018.95 1018.75 1019.43 1019.18 1019.01 1018.48 1018.34 1018.50 1016.79 1013.64 1012.33 1011.46 1011.65 1012.23 1012.55 1012.43 1012.61 1012.46 1013.15 1013.71 1014.23 1014.04 1014.00 1014.05 1013.90 1013.58 1013.39 1013.42 1013.08 1013.60 1013.87 1013.89 1013.73 1013.40 1013.85 1011.49 1011.57 1011.68 1012.61 1012.82 1012.57 1011.97 1011.23
1018.59 1018.69 1018.98 1019.15 1019.44 1019.01 1018.61 1018.35 1018.15 1018.29 1015.90 1013.52 1012.63 1012.30 1012.53 1012.96 1013.24 1013.18 1013.16 1013.18 1013.66 1014.09 1014.49 1014.62 1014.51 1014.82 1014.76 1014.22 1013.86 1013.61 1013.90 1013.99 1014.08 1014.81 1014.67 1013.75 1014.02 1013.13 1013.12 1013.88 1014.15 1013.79 1013.09 1012.36 1011.34
1018.49 1018.63 1018.95 1018.91 1019.09 1018.78 1018.63 1018.65 1018.91 1017.63 1014.88 1014.31 1013.87 1013.47 1013.58 1013.79 1013.93 1014.03 1014.55 1015.02 1015.25 1015.39 1015.42 1015.40 1015.69 1015.88 1015.79 1015.26 1014.74 1014.73 1014.84 1015.49 1015.79 1015.87 1015.04 1014.43 1014.77 1013.95 1014.56 1015.11 1015.59 1015.29 1014.05 1012.76 1011.62
1018.18 1018.45 1018.69 1018.72 1018.80 1018.84 1018.73 1019.17 1019.14 1016.88 1015.79 1014.77 1014.42 1014.25 1014.60 1015.06 1015.25 1015.36 1015.71 1016.28 1016.39 1016.49 1016.76 1016.71 1016.70 1016.71 1016.70 1016.49 1016.49 1016.39 1016.41 1016.87 1017.03 1017.07 1016.49 1015.68 1015.16 1014.96 1015.30 1015.38 1015.61 1015.47 1014.68 1013.06 1012.12
1017.99 1018.91 1019.13 1018.63 1018.73 1018.92 1019.23 1019.51 1017.72 1016.61 1015.89 1015.70 1015.33 1015.11 1015.41 1015.56 1015.73 1016.04 1016.62 1016.77 1016.88 1017.17 1017.32 1017.41 1017.62 1017.55 1017.48 1017.24 1017.21 1017.32 1017.52 1018.02 1018.32 1018.85 1018.30 1016.88 1015.93 1015.72 1015.23 1015.09 1015.13 1014.95 1014.63 1013.84 1012.98
1018.42 1018.80 1019.09 1018.65 1018.50 1019.13 1019.54 1018.74 1017.57 1016.45 1015.65 1015.40 1015.43 1015.45 1015.71 1015.99 1016.58 1016.49 1016.56 1016.83 1017.24 1017.48 1017.47 1017.65 1018.22 1018.38 1017.92 1017.70 1018.02 1018.38 1018.66 1018.96 1019.59 1020.40 1020.04 1018.22 1017.25 1016.16 1016.48 1016.13 1015.84 1015.33 1014.83 1014.55 1013.77
1018.22 1018.85 1018.93 1018.49 1018.43 1019.24 1019.25 1018.00 1016.75 1016.11 1016.19 1016.30 1015.88 1015.86 1016.13 1016.28 1016.66 1017.12 1016.76 1017.35 1017.21 1018.04 1017.98 1018.15 1018.75 1019.02 1018.59 1019.19 1019.61 1019.74 1019.82 1020.19 1020.81 1021.84 1021.64 1020.72 1018.09 1017.08 1017.23 1016.77 1016.57 1016.06 1015.44 1014.81 1014.17
1018.58 1019.40 1019.45 1018.71 1018.97 1018.77 1018.75 1017.64 1016.50 1015.93 1016.20 1016.30 1016.21 1016.01 1016.16 1016.45 1016.66 1017.11 1016.92 1016.77 1016.92 1017.79 1018.33 1018.77 1018.99 1019.78 1020.33 1020.30 1020.43 1020.45 1020.93 1021.26 1022.21 1023.28 1023.21 1022.72 1019.41 1017.74 1017.61 1017.14 1016.57 1016.06 1015.45 1014.81 1014.13
1018.80 1019.50 1019.74 1019.69 1019.67 1019.53 1018.69 1017.81 1017.17 1016.52 1016.67 1016.91 1016.79 1016.58 1016.72 1016.93 1017.79 1017.77 1017.47 1017.60 1017.55 1017.99 1018.40 1018.59 1019.54 1020.37 1021.13 1021.19 1021.06 1021.47 1021.95 1022.32 1023.21 1024.05 1023.87 1023.63 1019.60 1017.86 1017.33 1017.01 1016.11 1015.63 1015.55 1014.87 1014.21
1018.85 1020.12 1020.32 1020.45 1020.31 1019.93 1019.25 1018.19 1017.67 1017.25 1017.29 1017.23 1017.58 1018.09 1018.11 1018.23 1018.45 1018.70 1018.80 1018.77 1018.53 1018.58 1018.85 1019.30 1020.06 1020.23 1020.40 1020.91 1021.47 1022.14 1022.49 1022.93 1023.77 1025.08 1024.21 1022.58 1020.29 1019.80 1018.92 1018.25 1017.11 1016.01 1015.63 1015.00 1014.31
1019.03 1019.63 1019.61 1020.25 1020.32 1020.23 1019.84 1019.26 1018.47 1018.24 1018.33 1018.38 1018.65 1018.42 1018.98 1018.96 1018.85 1019.07 1018.85 1019.19 1019.25 1018.91 1019.58 1020.06 1020.92 1021.59 1021.07 1021.28 1021.74 1022.22 1022.25 1022.80 1023.60 1023.58 1024.00 1021.97 1021.16 1019.29 1018.52 1017.63 1016.47 1015.72 1015.13 1014.67 1013.76
1019.73 1019.68 1020.54 1020.60 1020.07 1020.26 1019.99 1019.24 1018.88 1018.51 1018.95 1018.86 1018.73 1018.04 1018.30 1018.86 1018.48 1018.61 1018.84 1019.09 1019.22 1019.38 1020.31 1020.86 1021.85 1022.50 1022.55 1022.24 1022.18 1021.75 1021.68 1022.03 1022.34 1022.60 1022.66 1021.75 1020.14 1018.97 1017.78 1016.91 1015.89 1015.02 1014.50 1014.07 1013.22
1020.14 1020.46 1020.24 1020.19 1020.22 1020.72 1019.64 1018.43 1018.12 1018.14 1017.91 1017.82 1018.44 1018.06 1018.17 1017.89 1018.58 1018.75 1018.79 1018.76 1019.07 1019.40 1020.71 1021.62 1022.51 1023.34 1023.67 1023.34 1022.55 1021.69 1020.33 1020.52 1020.84 1021.00 1021.03 1020.58 1019.30 1018.46 1017.20 1016.25 1014.89 1014.02 1013.63 1013.27 1012.54
Wind_Speed
17 17 18 19 19 19 19 19 20 20 20 19 18 17 16 15 12 1 4 5 1 4 6 5 2 2 3 2 3 3 5 2 4 5 4 3 7 4 3 2 5 3 3 3 1
16 16 17 18 19 19 18 19 20 20 19 18 17 17 16 15 3 4 6 3 4 5 4 4 3 2 3 1 2 5 3 7 4 3 1 4 2 6 6 5 4 4 3 6 3
16 17 18 19 20 20 19 20 21 20 20 19 18 16 16 8 3 1 3 3 1 6 3 2 4 2 1 2 2 3 6 3 4 4 3 4 5 3 4 7 6 5 6 2 1
16 17 18 20 20 21 21 21 22 22 21 20 18 15 14 0 2 3 3 3 5 6 3 4 4 3 1 3 2 1 6 4 5 1 4 4 3 3 8 12 3 8 4 5 6
17 18 19 21 22 23 23 22 22 22 21 19 16 12 4 3 7 0 6 7 5 5 5 4 4 3 1 2 1 3 4 5 7 8 7 3 8 7 8 13 9 9 8 10 8
17 18 19 20 22 23 24 23 25 23 20 17 11 8 1 3 1 4 6 4 4 4 5 5 6 6 4 3 3 1 4 6 7 7 6 6 7 4 10 6 10 7 10 10 9
16 18 19 20 22 24 26 26 25 24 19 7 4 2 0 10 3 3 2 2 4 4 5 5 5 4 2 3 1 2 5 8 7 4 5 5 4 7 5 6 9 9 9 8 10
15 17 18 19 21 24 26 26 23 18 6 3 1 1 6 3 1 2 2 2 2 2 1 4 4 2 3 1 6 3 3 3 5 3 4 2 7 7 5 5 9 10 8 7 7
13 15 16 19 21 24 28 26 16 1 4 4 2 2 7 6 2 1 1 1 1 3 2 2 4 3 3 4 5 4 6 3 7 1 3 3 6 7 16 6 10 10 11 8 9
11 12 14 17 21 24 29 24 6 3 1 2 2 2 3 1 4 4 2 2 2 3 2 3 4 3 3 4 7 6 4 4 4 5 10 12 16 7 9 9 11 10 11 11 10
10 10 12 16 20 24 13 6 9 5 8 4 4 5 4 8 2 4 4 3 3 4 4 1 2 7 12 9 4 2 4 7 4 8 5 9 15 11 10 9 11 13 11 9 11
9 10 11 15 17 17 5 7 3 4 12 4 6 5 6 3 5 3 4 4 3 5 2 3 8 10 4 3 4 4 4 6 7 9 4 8 16 12 10 9 6 7 11 16 17
9 8 9 14 16 5 3 3 5 2 4 7 4 3 1 6 1 4 2 2 3 2 3 5 5 6 4 2 3 4 5 5 11 3 3 5 9 4 4 4 6 8 10 13 17
11 7 8 17 5 4 2 6 3 2 5 7 2 2 3 1 3 3 4 1 2 4 3 6 6 3 3 5 7 3 8 11 7 2 3 2 8 6 3 5 10 15 16 17 19
9 5 6 8 3 3 5 6 3 3 6 2 1 1 2 3 2 3 2 2 2 2 4 6 2 3 4 5 5 8 1 3 3 4 1 3 1 9 4 5 10 15 16 17 18
7 3 4 2 2 4 6 5 3 6 9 4 3 4 3 5 4 5 5 7 2 1 1 5 1 3 4 5 3 5 3 3 3 1 3 5 7 8 3 5 6 12 14 17 20
7 6 4 2 2 4 4 4 6 4 6 3 3 4 2 2 2 4 4 5 1 1 2 3 2 4 4 4 3 6 3 3 3 1 7 1 2 6 5 6 5 10 13 14 17
6 10 3 2 1 4 3 5 4 4 7 2 2 2 2 4 2 2 3 2 2 2 2 4 4 4 6 2 1 3 2 4 7 3 4 5 6 2 6 3 3 7 12 15 19
12 2 1 4 5 2 2 2 8 6 2 5 4 1 2 2 1 1 2 4 3 3 8 5 4 2 2 3 2 1 3 1 0 4 2 5 3 3 4 10 12 14 15 17 17
3 3 3 6 6 3 2 7 6 4 3 2 5 7 6 4 3 3 6 4 4 3 3 4 2 1 1 1 6 4 0 2 2 1 4 5 6 4 7 9 13 16 15 14 15
3 1 1 5 3 2 5 9 5 6 4 7 7 11 8 6 7 4 3 1 4 1 2 3 1 2 1 6 2 3 2 4 3 1 3 4 7 5 5 6 10 12 13 12 11
2 2 3 2 3 4 5 7 4 4 2 6 3 5 8 9 8 7 9 3 6 6 5 1 4 2 2 4 5 2 2 4 4 3 2 1 11 4 6 10 12 13 14 13 12
1 2 2 3 4 3 4 5 5 4 6 4 5 2 4 4 4 3 3 3 4 3 5 6 2 3 2 1 3 2 1 3 3 3 5 3 9 4 17 24 27 24 15 14 13
3 1 2 2 2 2 2 5 5 3 3 1 3 7 3 2 2 2 2 1 2 0 4 4 1 3 4 3 5 2 4 3 5 3 4 11 23 16 19 20 21 22 16 13 16
2 1 1 4 5 7 1 3 2 2 3 1 3 9 6 6 5 6 8 2 0 3 3 3 3 3 2 1 3 6 6 6 7 7 5 15 16 22 19 18 19 19 18 16 18
1 2 2 2 1 3 7 5 6 5 5 5 10 9 12 7 10 7 8 8 7 3 3 2 3 1 2 3 3 8 10 10 12 12 10 18 24 19 16 13 16 17 14 13 16
1 2 2 3 3 2 5 7 9 4 8 7 11 6 14 12 1 2 11 2 5 7 4 4 5 3 3 3 5 5 7 5 3 5 6 7 14 12 20 22 21 19 12 12 17
Wind_Direction
357 357 356 354 352 350 345 343 341 338 334 333 336 337 332 327 323 111 259 212 191 152 91 110 77 54 46 87 92 130 60 247 254 166 255 334 21 314 275 280 343 295 224 242 141
353 352 351 348 346 343 339 337 335 332 330 328 333 333 329 333 304 262 255 189 219 154 92 123 132 93 40 34 25 91 119 225 221 227 293 320 358 327 340 339 314 317 316 3 164
350 349 346 344 342 340 336 332 332 329 326 324 326 328 323 339 312 321 149 197 301 144 90 104 102 90 68 34 204 158 196 217 265 247 304 306 309 247 287 289 214 257 281 52 97
345 344 343 341 339 338 334 330 330 326 321 318 317 318 319 338 358 1 108 108 113 115 76 81 62 76 118 232 174 261 259 236 283 247 324 269 272 257 204 255 249 241 270 310 193
343 343 342 340 337 334 330 327 326 321 317 312 305 308 333 353 250 306 100 113 98 116 144 133 123 127 266 249 330 205 268 279 269 291 270 280 254 231 247 264 246 245 262 255 252
338 339 339 337 332 330 328 325 324 318 317 303 285 293 202 255 112 128 130 127 135 124 157 144 180 187 193 219 173 250 256 270 287 275 250 237 274 142 277 269 274 258 238 242 244
334 337 338 336 332 329 326 323 323 320 319 317 255 273 73 240 65 356 172 208 177 163 152 188 165 140 152 302 282 276 307 319 273 271 263 157 280 224 278 318 294 300 286 280 257
329 334 335 333 328 325 320 318 317 317 357 67 125 351 248 280 1 316 160 290 189 196 188 171 153 131 155 191 11 343 56 331 292 350 295 109 275 302 335 339 305 312 297 284 260
322 324 328 330 326 325 320 320 315 0 110 122 45 82 273 307 102 251 255 223 176 150 217 99 110 138 77 88 0 347 256 245 314 336 328 53 284 286 310 313 301 300 292 294 291
309 320 327 330 327 328 323 321 296 336 265 214 242 0 292 286 329 334 250 181 190 116 90 95 64 132 71 114 230 216 241 243 251 299 318 312 287 275 282 299 288 290 293 296 292
307 316 323 329 330 329 337 2 10 353 32 271 297 281 281 300 335 315 320 80 71 61 182 341 150 203 207 199 136 148 213 251 256 270 283 259 278 276 277 282 285 283 311 310 299
303 312 328 328 331 332 4 58 81 244 307 280 247 261 276 306 312 285 120 146 133 207 78 0 258 233 220 182 203 201 265 269 272 250 174 269 280 278 268 263 267 352 336 338 326
297 311 332 328 326 28 13 44 312 172 282 307 227 230 268 139 273 310 76 94 113 140 221 177 261 59 154 252 250 247 229 229 249 309 264 291 289 195 292 281 32 22 354 349 335
310 332 350 332 62 322 35 321 338 135 12 282 6 358 93 175 46 4 14 99 35 226 195 232 271 253 195 221 190 261 236 252 261 48 240 72 289 303 305 335 21 6 354 350 342
311 296 37 62 285 4 308 327 328 45 338 50 34 288 100 88 254 21 3 35 195 236 113 254 338 305 241 228 160 229 296 256 249 198 228 182 118 271 341 302 5 349 350 348 347
296 237 128 75 28 258 310 320 55 38 257 349 20 355 44 14 15 319 25 35 103 165 318 247 10 46 299 317 339 325 292 29 30 153 279 195 175 278 326 9 342 342 354 349 347
281 184 163 142 250 298 327 27 27 169 355 347 348 20 74 317 13 52 39 23 214 293 244 329 48 337 12 327 27 18 77 315 303 218 238 130 178 245 76 39 344 335 346 355 357
265 164 211 238 132 0 12 43 182 239 263 322 7 337 259 358 346 25 87 173 72 137 166 196 264 10 328 72 293 14 31 175 233 213 268 326 242 151 100 89 358 351 355 9 4
122 79 144 250 197 5 74 210 218 207 283 344 314 271 303 297 237 327 248 213 192 189 186 168 251 247 51 39 329 326 76 121 101 303 48 242 279 171 31 25 17 10 4 1 2
119 137 219 330 149 105 124 242 241 234 184 147 204 191 224 219 234 188 186 169 188 206 187 196 257 288 307 168 32 62 206 132 80 253 246 291 273 225 27 13 2 1 5 353 350
109 165 282 324 145 107 210 220 253 237 180 203 228 250 239 209 203 215 210 260 155 134 112 133 124 323 321 35 32 345 34 51 84 56 209 289 265 125 75 19 350 336 341 340 346
143 252 313 280 129 178 208 204 226 192 147 262 257 249 236 207 211 215 212 202 162 159 146 138 126 56 326 306 223 155 119 99 136 200 203 187 269 118 333 322 322 322 316 322 324
187 44 330 326 209 243 276 267 239 226 212 225 254 239 11 188 252 269 167 74 91 119 180 170 156 133 321 351 55 94 120 115 110 80 209 158 258 318 335 322 316 313 310 309 311
128 201 338 343 355 306 253 250 237 53 294 157 339 4 16 284 334 250 243 212 188 331 165 97 128 196 185 137 127 164 211 140 128 136 218 238 278 291 284 282 288 293 301 293 298
34 255 84 206 232 234 219 329 303 283 31 118 237 219 202 208 192 225 205 135 333 268 98 131 167 240 272 206 177 209 225 207 191 212 201 279 270 275 281 283 281 286 286 282 283
18 125 55 251 87 242 195 221 239 220 193 221 236 199 195 200 207 177 181 175 206 127 119 26 136 108 288 324 262 277 257 239 234 251 251 258 272 277 280 286 282 271 272 268 270
47 3 226 164 161 205 216 205 214 173 219 232 221 207 218 211 288 48 203 181 164 138 135 131 137 119 279 342 312 276 222 180 188 195 207 264 289 327 308 300 289 280 268 259 263